Mayfld Grav Cnty AP, Mayfield, KY

3:28 AM CDT on October 23, 2019 (GMT -0500)
Mayfld Grav Cnty AP, Mayfield

Weather History for KM25 - August, 2019

Change the Weather History Date:

Thursday, August 22, 2019

  Actual Average (KPAH) Record (KPAH)
Temperature  
Mean Temperature 76 °F -  
Max Temperature 82 °F 87 °F 101 °F (1987)
Min Temperature 69 °F 65 °F 50 °F (1956)
Cooling Degree Days 10    
Growing Degree Days 26 (Base 50)    
Moisture  
Dew Point 70 °F    
Average Humidity 91    
Maximum Humidity 100    
Minimum Humidity 74    
Precipitation  
Precipitation 1.39 in - - ()
Sea Level Pressure  
Sea Level Pressure 30.00 in    
Wind  
Wind Speed 4 mph (ESE)    
Max Wind Speed 12 mph    
Max Gust Speed 23 mph    
Visibility 9 miles    
Events      
Averages and records for this station are not official NWS values.
T = Trace of Precipitation, MM = Missing Value Source: NWS Daily Summary

Daily Weather History Graph

Daily Weather History Graph

Search for Another Location

Airport or City:

Astronomy

Aug. 22, 2019 Rise Set
Actual Time 6:17 AM CDT 7:36 PM CDT
Civil Twilight 5:50 AM CDT 8:03 PM CDT
Nautical Twilight 5:17 AM CDT 8:36 PM CDT
Astronomical Twilight 4:43 AM CDT 9:09 PM CDT
Moon 11:37 PM CDT (8/22) 12:42 PM CDT (8/22)
Length of Visible Light 14h 13m
Length of Day
13h 19m
Waning Gibbous, 59% of the Moon is Illuminated
Aug 22
Waning Gibbous
Aug 23
Last Quarter
Aug 30
New
Sep 5
First Quarter
Sep 13
Full

Hourly Weather History & Observations

Time (CDT) Temp. Heat Index Dew Point Humidity Pressure Visibility Wind Dir Wind Speed Gust Speed Precip Events Conditions
12:15 AM 73.4 °F - 68.0 °F 83% 29.97 in 10.0 mi East 3.5 mph - N/A   Clear
12:35 AM 73.4 °F - 68.0 °F 83% 29.98 in 10.0 mi East 4.6 mph - N/A   Clear
12:55 AM 73.4 °F - 68.0 °F 83% 29.98 in 10.0 mi Calm Calm - N/A   Clear
1:15 AM 73.4 °F - 68.0 °F 83% 29.99 in 10.0 mi Calm Calm - N/A   Clear
1:35 AM 73.4 °F - 68.0 °F 83% 30.00 in 10.0 mi NNW 6.9 mph - N/A   Clear
1:55 AM 73.4 °F - 69.8 °F 88% 30.01 in 10.0 mi NNW 5.8 mph - N/A   Clear
2:15 AM 73.4 °F - 68.0 °F 83% 30.02 in 10.0 mi North 5.8 mph - N/A   Clear
2:35 AM 73.4 °F - 68.0 °F 83% 30.02 in 10.0 mi North 6.9 mph - N/A   Clear
2:55 AM 73.4 °F - 68.0 °F 83% 30.02 in 10.0 mi NNE 3.5 mph - N/A   Clear
3:15 AM 73.4 °F - 68.0 °F 83% 30.02 in 10.0 mi Calm Calm - N/A   Clear
3:35 AM 71.6 °F - 68.0 °F 88% 30.02 in 10.0 mi Calm Calm - N/A   Clear
3:55 AM 71.6 °F - 68.0 °F 88% 30.01 in 10.0 mi Calm Calm - N/A   Scattered Clouds
4:15 AM 69.8 °F - 68.0 °F 94% 30.01 in 10.0 mi SE 3.5 mph - N/A   Clear
4:35 AM 71.6 °F - 68.0 °F 88% 30.01 in 10.0 mi Calm Calm - N/A   Clear
4:55 AM 71.6 °F - 68.0 °F 88% 30.01 in 10.0 mi SE 4.6 mph - N/A   Mostly Cloudy
5:15 AM 71.6 °F - 68.0 °F 88% 30.01 in 10.0 mi ESE 3.5 mph - N/A   Mostly Cloudy
5:35 AM 71.6 °F - 68.0 °F 88% 30.00 in 10.0 mi SE 5.8 mph - N/A   Scattered Clouds
5:55 AM 71.6 °F - 68.0 °F 88% 30.00 in 10.0 mi SE 4.6 mph - N/A   Scattered Clouds
6:15 AM 71.6 °F - 68.0 °F 88% 30.00 in 10.0 mi SE 5.8 mph - N/A   Scattered Clouds
6:35 AM 71.6 °F - 68.0 °F 88% 30.01 in 10.0 mi SE 4.6 mph - N/A   Mostly Cloudy
6:55 AM 73.4 °F - 68.0 °F 83% 30.01 in 10.0 mi SE 5.8 mph - N/A   Mostly Cloudy
7:15 AM 73.4 °F - 69.8 °F 88% 30.00 in 10.0 mi SE 5.8 mph - N/A   Scattered Clouds
7:35 AM 73.4 °F - 69.8 °F 88% 30.01 in 10.0 mi SE 4.6 mph - N/A   Scattered Clouds
7:55 AM 73.4 °F - 69.8 °F 88% 30.03 in 10.0 mi North 6.9 mph - N/A   Overcast
8:15 AM 71.6 °F - 69.8 °F 94% 30.04 in 10.0 mi NNW 11.5 mph 17.3 mph N/A   Overcast
8:35 AM 71.6 °F - 69.8 °F 94% 30.07 in 0.8 mi NNW 5.8 mph 16.1 mph 0.01 in   Overcast
8:55 AM 69.8 °F - 69.8 °F 100% 30.05 in 0.2 mi ENE 5.8 mph - 0.51 in   Overcast
9:15 AM 69.8 °F - 69.8 °F 100% 30.02 in 5.0 mi East 10.4 mph - 0.02 in   Overcast
9:55 AM 69.8 °F - 69.8 °F 100% 30.04 in 10.0 mi ESE 4.6 mph - 0.03 in   Mostly Cloudy
10:15 AM 71.6 °F - 71.6 °F 100% 30.03 in 10.0 mi ESE 6.9 mph - N/A   Overcast
10:35 AM 73.4 °F - 71.6 °F 94% 30.03 in 10.0 mi East 5.8 mph - N/A   Mostly Cloudy
10:55 AM 77.0 °F - 71.6 °F 83% 30.04 in 10.0 mi East 9.2 mph - N/A   Scattered Clouds
11:15 AM 78.8 °F - 71.6 °F 78% 30.03 in 10.0 mi East 6.9 mph - N/A   Scattered Clouds
11:35 AM 80.6 °F 84.6 °F 71.6 °F 74% 30.03 in 10.0 mi SE 6.9 mph - N/A   Scattered Clouds
11:55 AM 78.8 °F - 71.6 °F 78% 30.01 in 10.0 mi SSE 5.8 mph - N/A   Mostly Cloudy
12:15 PM 80.6 °F 84.6 °F 71.6 °F 74% 30.00 in 10.0 mi SE 8.1 mph - N/A   Mostly Cloudy
12:35 PM 82.4 °F 88.2 °F 73.4 °F 74% 30.00 in 10.0 mi SE 6.9 mph - N/A   Scattered Clouds
12:55 PM 82.4 °F 88.2 °F 73.4 °F 74% 30.00 in 10.0 mi ESE 6.9 mph - N/A   Mostly Cloudy
1:15 PM 82.4 °F 88.2 °F 73.4 °F 74% 29.99 in 10.0 mi SSE 6.9 mph - N/A   Mostly Cloudy
1:35 PM 82.4 °F 88.2 °F 73.4 °F 74% 30.00 in 10.0 mi South 3.5 mph - N/A   Mostly Cloudy
1:55 PM 69.8 °F - 68.0 °F 94% 30.03 in 0.2 mi North 9.2 mph 23.0 mph 0.33 in   Overcast
2:15 PM 69.8 °F - 68.0 °F 94% 30.03 in 0.2 mi East 3.5 mph - 0.27 in   Overcast
2:55 PM 69.8 °F - 69.8 °F 100% 30.02 in 4.0 mi SSE 4.6 mph - 0.43 in   Overcast
3:15 PM 69.8 °F - 69.8 °F 100% 30.01 in 7.0 mi East 4.6 mph - 0.01 in   Mostly Cloudy
3:35 PM 69.8 °F - 69.8 °F 100% 30.00 in 4.0 mi East 5.8 mph - 0.03 in   Overcast
3:55 PM 69.8 °F - 69.8 °F 100% 30.00 in 2.0 mi South 5.8 mph - 0.08 in   Overcast
4:15 PM 69.8 °F - 69.8 °F 100% 29.99 in 10.0 mi ESE 4.6 mph - N/A   Overcast
4:35 PM 69.8 °F - 69.8 °F 100% 29.98 in 10.0 mi East 5.8 mph - 0.01 in   Mostly Cloudy
4:55 PM 69.8 °F - 69.8 °F 100% 29.97 in 10.0 mi Calm Calm - 0.01 in   Clear
5:15 PM 69.8 °F - 69.8 °F 100% 29.96 in 10.0 mi South 4.6 mph - N/A   Clear
5:35 PM 69.8 °F - 69.8 °F 100% 29.96 in 10.0 mi South 3.5 mph - N/A   Clear
5:55 PM 71.6 °F - 69.8 °F 94% 29.96 in 10.0 mi Calm Calm - N/A   Clear
6:15 PM 71.6 °F - 69.8 °F 94% 29.96 in 10.0 mi Calm Calm - N/A   Clear
6:35 PM 71.6 °F - 69.8 °F 94% 29.96 in 10.0 mi Calm Calm - N/A   Clear
6:55 PM 71.6 °F - 69.8 °F 94% 29.95 in 10.0 mi Calm Calm - N/A   Clear
7:15 PM 71.6 °F - 69.8 °F 94% 29.96 in 10.0 mi Calm Calm - N/A   Clear
7:35 PM 71.6 °F - 69.8 °F 94% 29.97 in 10.0 mi Calm Calm - N/A   Clear
7:55 PM 71.6 °F - 69.8 °F 94% 29.98 in 10.0 mi Calm Calm - N/A   Mostly Cloudy
8:35 PM 69.8 °F - 69.8 °F 100% 29.98 in 10.0 mi NW 3.5 mph - N/A   Scattered Clouds
8:55 PM 69.8 °F - 69.8 °F 100% 29.97 in 10.0 mi Calm Calm - N/A   Scattered Clouds
9:15 PM 69.8 °F - 69.8 °F 100% 29.98 in 10.0 mi Calm Calm - N/A   Scattered Clouds
9:35 PM 69.8 °F - 69.8 °F 100% 29.99 in 10.0 mi Calm Calm - N/A   Overcast
9:55 PM 69.8 °F - 69.8 °F 100% 30.00 in 3.0 mi Calm Calm - N/A   Overcast
10:55 PM 69.8 °F - 69.8 °F 100% 30.01 in 10.0 mi Calm Calm - N/A   Overcast
11:15 PM 69.8 °F - 69.8 °F 100% 30.02 in 10.0 mi Calm Calm - N/A   Overcast
11:55 PM 69.8 °F - 69.8 °F 100% 30.02 in 7.0 mi Calm Calm - N/A   Overcast